EW4071 Weather Reports


Display with metric or nautical units.
time (UTC)temp
F
wind
direction
speed
MPH
gust
MPH
rain 1hr
in
rain 24hr
in
rain mn
in
humidity
%
barometer
mb
20260906020007 90 138 0.0 0.0 0.00 0.00 0.00 50 1007.7
20260906014509 90 138 0.0 0.0 0.00 0.00 0.00 50 1007.5
20260906013017 92 135 0.0 0.0 0.00 0.00 0.00 47 1007.4
20260906011505 92 140 0.0 0.0 0.00 0.00 0.00 47 1007.3
20260906010005 93 140 0.0 0.0 0.00 0.00 0.00 45 1007.1
20260906004505 94 140 0.0 0.0 0.00 0.00 0.00 43 1007.3
20260906003003 95 130 0.0 0.0 0.00 0.00 0.00 42 1007.4
20260906001503 96 120 0.0 0.0 0.00 0.00 0.00 40 1007.5
20260906000002 97 140 0.0 0.0 0.00 0.00 0.00 40 1007.4
20260905234503 98 129 0.0 0.0 0.00 0.00 0.00 38 1007.3
20260905233102 98 152 1.0 7.0 0.00 0.00 0.00 37 1007.2
20260905231600 99 210 0.0 0.0 0.00 0.00 0.00 36 1007.1
20260905230108 99 161 6.0 10.0 0.00 0.00 0.00 37 1007.0
20260905224613 99 132 2.0 9.0 0.00 0.00 0.00 37 1006.9
20260905223058 100 142 7.0 11.0 0.00 0.00 0.00 36 1006.9
20260905221612 100 168 4.0 10.0 0.00 0.00 0.00 36 1006.9
20260905220056 100 162 0.0 11.0 0.00 0.00 0.00 36 1007.0
20260905214557 99 165 0.0 10.0 0.00 0.00 0.00 38 1007.1
20260905213102 100 127 0.0 5.0 0.00 0.00 0.00 36 1007.2
20260905211551 100 167 0.0 9.0 0.00 0.00 0.00 38 1007.3
20260905210053 99 126 0.0 11.0 0.00 0.00 0.00 38 1007.7
20260905204548 100 152 7.0 12.0 0.00 0.00 0.00 38 1008.0
20260905203046 99 200 1.0 7.0 0.00 0.00 0.00 40 1008.1
20260905201556 100 227 1.0 8.0 0.00 0.00 0.00 39 1008.2
20260905200045 99 137 5.0 14.0 0.00 0.00 0.00 39 1008.5
20260905194537 99 246 1.0 12.0 0.00 0.00 0.00 40 1008.7
20260905193035 99 141 1.0 8.0 0.00 0.00 0.00 40 1008.9
20260905191533 99 220 1.0 10.0 0.00 0.00 0.00 39 1009.1
20260905190031 98 157 7.0 11.0 0.00 0.00 0.00 39 1009.2
20260905184539 98 173 9.0 14.0 0.00 0.00 0.00 40 1009.3
20260905183027 97 146 4.0 12.0 0.00 0.00 0.00 43 1009.6
20260905181526 97 132 7.0 13.0 0.00 0.00 0.00 44 1009.8
20260905180022 97 217 3.0 14.0 0.00 0.00 0.00 43 1009.9
20260905174521 97 178 1.0 14.0 0.00 0.00 0.00 44 1010.1
20260905173019 97 203 0.0 1.0 0.00 0.00 0.00 44 1010.2
20260905171518 96 138 7.0 11.0 0.00 0.00 0.00 45 1010.4
20260905170016 96 137 1.0 11.0 0.00 0.00 0.00 45 1010.5
20260905164513 95 258 0.0 4.0 0.00 0.00 0.00 47 1010.6
20260905163008 94 206 0.0 2.0 0.00 0.00 0.00 48 1010.7
20260905161507 94 217 0.0 9.0 0.00 0.00 0.00 50 1010.8
20260905160101 93 178 2.0 10.0 0.00 0.00 0.00 51 1010.8
20260905154617 92 239 0.0 2.0 0.00 0.00 0.00 52 1010.8
20260905153056 91 178 0.0 8.0 0.00 0.00 0.00 55 1010.7
20260905151601 90 159 0.0 0.0 0.00 0.00 0.00 57 1010.7
20260905150049 88 202 0.0 0.0 0.00 0.00 0.00 59 1010.5
20260905144544 87 158 0.0 0.0 0.00 0.00 0.00 61 1010.5
20260905143041 86 157 0.0 1.0 0.00 0.00 0.00 63 1010.4
20260905141538 85 147 0.0 0.0 0.00 0.00 0.00 65 1010.3
20260905140036 84 137 0.0 1.0 0.00 0.00 0.00 66 1010.3
20260905134537 82 150 0.0 0.0 0.00 0.00 0.00 71 1010.3
20260905133030 81 152 0.0 0.0 0.00 0.00 0.00 72 1010.1
20260905131529 80 147 0.0 0.0 0.00 0.00 0.00 74 1010.0
20260905130026 79 146 0.0 0.0 0.00 0.00 0.00 76 1009.8
20260905124524 78 146 0.0 0.0 0.00 0.00 0.00 76 1009.8
20260905123021 78 146 0.0 0.0 0.00 0.00 0.00 76 1009.7
20260905121525 77 146 0.0 0.0 0.00 0.00 0.00 76 1009.7
20260905120013 77 146 0.0 0.0 0.00 0.00 0.00 76 1009.7
20260905114514 78 146 0.0 0.0 0.00 0.00 0.00 75 1009.6
20260905113012 77 146 0.0 0.0 0.00 0.00 0.00 76 1009.4
20260905111510 78 146 0.0 0.0 0.00 0.00 0.00 75 1009.4
20260905110008 79 138 0.0 0.0 0.00 0.00 0.00 73 1009.6
20260905104507 79 138 0.0 0.0 0.00 0.00 0.00 73 1009.6
20260905103006 79 138 0.0 0.0 0.00 0.00 0.00 73 1009.6
20260905101506 79 139 0.0 0.0 0.00 0.00 0.00 72 1009.7
20260905100004 80 131 0.0 0.0 0.00 0.00 0.00 71 1009.7
20260905094601 81 177 0.0 0.0 0.00 0.00 0.00 69 1009.7
20260905093058 81 177 0.0 0.0 0.00 0.00 0.00 67 1009.6
20260905091624 81 213 0.0 0.0 0.00 0.00 0.00 68 1009.6
20260905090055 81 161 0.0 0.0 0.00 0.00 0.00 69 1009.6
20260905084610 81 151 0.0 0.0 0.00 0.00 0.00 69 1009.4
20260905083052 81 154 0.0 0.0 0.00 0.00 0.00 68 1009.3
20260905081550 82 164 0.0 0.0 0.00 0.00 0.00 66 1009.3
20260905080048 82 165 0.0 0.0 0.00 0.00 0.00 65 1009.3
20260905074551 83 211 0.0 0.0 0.00 0.00 0.00 65 1009.3
20260905073044 83 159 0.0 7.0 0.00 0.00 0.00 64 1009.2
20260905071546 84 156 0.0 9.0 0.00 0.00 0.00 63 1009.2
20260905070104 83 211 0.0 1.0 0.00 0.00 0.00 64 1009.4
20260905064546 84 160 0.0 0.0 0.00 0.00 0.00 63 1009.2
20260905063042 84 150 0.0 10.0 0.00 0.00 0.00 62 1009.1
20260905061541 83 173 0.0 6.0 0.00 0.00 0.00 64 1009.2
20260905060041 83 146 0.0 1.0 0.00 0.00 0.00 65 1009.3
20260905054548 84 143 0.0 6.0 0.00 0.00 0.00 64 1009.3
20260905053042 84 152 0.0 0.0 0.00 0.00 0.00 64 1009.3
20260905051541 84 140 0.0 0.0 0.00 0.00 0.00 64 1009.3
20260905050039 85 144 0.0 0.0 0.00 0.00 0.00 63 1009.3
20260905044530 85 145 0.0 0.0 0.00 0.00 0.00 63 1009.6
20260905043032 85 145 0.0 0.0 0.00 0.00 0.00 62 1009.5
20260905041530 85 134 0.0 0.0 0.00 0.00 0.00 61 1009.5
20260905040028 86 126 0.0 0.0 0.00 0.00 0.00 61 1009.4
20260905034534 86 119 0.0 0.0 0.00 0.00 0.00 60 1009.3
20260905033027 86 126 0.0 0.0 0.00 0.00 0.00 60 1009.3
20260905031523 87 125 0.0 0.0 0.00 0.00 0.00 59 1009.1
20260905030027 88 139 0.0 0.0 0.00 0.00 0.00 57 1009.0
20260905024522 88 128 0.0 0.0 0.00 0.00 0.00 56 1008.8
20260905023029 89 139 0.0 0.0 0.00 0.00 0.00 56 1008.4
20260905021521 89 135 0.0 0.0 0.00 0.00 0.00 55 1008.2